����,���ϕ���(m/s),���ϕ���,�ő�u�ԕ���(m/s),�ő啗��������,�C��(��),���x(%),10���Ԉړ��ώZ�J��(mm),1���Ԉړ��ώZ�J��(mm),���J��(mm),�݌v�J��(mm)
2022-09-19T00:00:00+09:00,3.2,��,8.3,���k��,29,64.2,0,0,0,0
2022-09-19T00:01:00+09:00,3.2,��,8.3,���k��,29,64,0,0,0,0
2022-09-19T00:02:00+09:00,3,��,8.3,���k��,29,64.1,0,0,0,0
2022-09-19T00:03:00+09:00,3,��,8.3,���k��,29.1,64.1,0,0,0,0
2022-09-19T00:04:00+09:00,3.1,��,6.5,���쓌,29.1,63.7,0,0,0,0
2022-09-19T00:05:00+09:00,3.2,��,9.5,���k��,29,64,0,0,0,0
2022-09-19T00:06:00+09:00,3.3,��,9.5,���k��,29.1,63.7,0,0,0,0
2022-09-19T00:07:00+09:00,3.2,��,9.5,���k��,29.2,63.2,0,0,0,0
2022-09-19T00:08:00+09:00,3.3,���k��,9.5,���k��,29.1,63.2,0,0,0,0
2022-09-19T00:09:00+09:00,3.4,���k��,9.5,���k��,29,63.4,0,0,0,0
2022-09-19T00:10:00+09:00,3.3,��,9.5,���k��,28.9,63.8,0,0,0,0
2022-09-19T00:11:00+09:00,3.2,���k��,9.5,���k��,29,63.9,0,0,0,0
2022-09-19T00:12:00+09:00,3,���k��,9.5,���k��,29,63.7,0,0,0,0
2022-09-19T00:13:00+09:00,2.9,��,9.5,���k��,29,63.7,0,0,0,0
2022-09-19T00:14:00+09:00,2.6,��,9.5,���k��,29,63.6,0,0,0,0
2022-09-19T00:15:00+09:00,2.2,��,9.5,��,29,63.6,0,0,0,0
2022-09-19T00:16:00+09:00,2,��,6.2,��,29.1,63.2,0,0,0,0
2022-09-19T00:17:00+09:00,1.9,��,5.8,��,29.1,62.9,0,0,0,0
2022-09-19T00:18:00+09:00,1.6,���쓌,5.8,��,29.1,63,0,0,0,0
2022-09-19T00:19:00+09:00,1.3,���쓌,5.8,��,29,63.2,0,0,0,0
2022-09-19T00:20:00+09:00,1.4,��,5.8,��,29,63.3,0,0,0,0
2022-09-19T00:21:00+09:00,1.5,���쓌,5.8,��,29.1,63.1,0,0,0,0
2022-09-19T00:22:00+09:00,1.7,��,5.8,��,29,63,0,0,0,0
2022-09-19T00:23:00+09:00,2,��,6.5,���k��,28.9,63.5,0,0,0,0
2022-09-19T00:24:00+09:00,2,��,6.5,���k��,29,63.2,0,0,0,0
2022-09-19T00:25:00+09:00,2.3,��,6.5,���k��,29.1,62.6,0,0,0,0
2022-09-19T00:26:00+09:00,2.3,��,6.5,���k��,29.1,62.6,0,0,0,0
2022-09-19T00:27:00+09:00,2.3,���k��,6.5,���k��,29.1,62.6,0,0,0,0
2022-09-19T00:28:00+09:00,2.4,���k��,6.5,���k��,29.1,62.4,0,0,0,0
2022-09-19T00:29:00+09:00,2.8,���k��,6.8,�k��,29.2,62.2,0,0,0,0
2022-09-19T00:30:00+09:00,2.9,���k��,6.8,�k��,29.2,61.8,0,0,0,0
2022-09-19T00:31:00+09:00,3,���k��,6.8,�k��,29.2,61.6,0,0,0,0
2022-09-19T00:32:00+09:00,3,���k��,6.8,�k��,29.1,61.8,0,0,0,0
2022-09-19T00:33:00+09:00,3.1,���k��,6.8,�k��,29.1,61.9,0,0,0,0
2022-09-19T00:34:00+09:00,3.2,���k��,6.8,�k��,29.1,61.8,0,0,0,0
2022-09-19T00:35:00+09:00,3.1,���k��,6.8,�k��,29.2,61.7,0,0,0,0
2022-09-19T00:36:00+09:00,3,���k��,6.8,�k��,29.2,61.6,0,0,0,0
2022-09-19T00:37:00+09:00,3,���k��,6.8,�k��,29.2,61.5,0,0,0,0
2022-09-19T00:38:00+09:00,3,���k��,6.8,�k��,29.1,61.9,0,0,0,0
2022-09-19T00:39:00+09:00,2.8,��,5.8,��,29.2,61.7,0,0,0,0
2022-09-19T00:40:00+09:00,2.8,��,6.7,��쓌,29.1,61.6,0,0,0,0
2022-09-19T00:41:00+09:00,3,��,6.7,��쓌,29.1,61.9,0,0,0,0
2022-09-19T00:42:00+09:00,2.9,��,6.7,��쓌,29.3,61,0,0,0,0
2022-09-19T00:43:00+09:00,2.8,��,6.7,��쓌,29.4,60.5,0,0,0,0
2022-09-19T00:44:00+09:00,2.6,��,6.7,��쓌,29.4,60.5,0,0,0,0
2022-09-19T00:45:00+09:00,2.5,��,6.7,��쓌,29.2,60.6,0,0,0,0
2022-09-19T00:46:00+09:00,2.6,��,6.7,��쓌,29.1,61,0,0,0,0
2022-09-19T00:47:00+09:00,2.5,��,6.7,��쓌,29.1,61.2,0,0,0,0
2022-09-19T00:48:00+09:00,2.6,��,6.7,��쓌,29.1,61.4,0,0,0,0
2022-09-19T00:49:00+09:00,2.7,��,9,��,29.2,61.4,0,0,0,0
2022-09-19T00:50:00+09:00,2.9,��,9,��,29.2,61,0,0,0,0
2022-09-19T00:51:00+09:00,2.8,���k��,9,��,29.2,60.8,0,0,0,0
2022-09-19T00:52:00+09:00,3,���k��,9,��,29.2,60.9,0,0,0,0
2022-09-19T00:53:00+09:00,3.2,��,9,��,29.3,60.8,0,0,0,0
2022-09-19T00:54:00+09:00,3.4,��,9,��,29.3,60.7,0,0,0,0
2022-09-19T00:55:00+09:00,3.4,��,9,��,29.2,60.7,0,0,0,0
2022-09-19T00:56:00+09:00,3.5,��,9,��,29.2,61,0,0,0,0
2022-09-19T00:57:00+09:00,3.6,���쓌,9,��,29.2,61.2,0,0,0,0
2022-09-19T00:58:00+09:00,3.6,���쓌,9,��,29.2,61.1,0,0,0,0
2022-09-19T00:59:00+09:00,3.6,���쓌,8.8,��,29.2,60.9,0,0,0,0
2022-09-19T01:00:00+09:00,3.4,���쓌,7,��쓌,29.2,61,0,0,0,0
2022-09-19T01:01:00+09:00,3.2,���쓌,7,��쓌,29.1,61.2,0,0,0,0
2022-09-19T01:02:00+09:00,3,���쓌,7,��쓌,29,61.5,0,0,0,0
2022-09-19T01:03:00+09:00,2.8,���쓌,7,��쓌,29,61.9,0,0,0,0
2022-09-19T01:04:00+09:00,2.5,���쓌,7,��쓌,29.1,62.3,0,0,0,0
2022-09-19T01:05:00+09:00,2.6,���쓌,10,��,29.1,62.7,0,0,0,0
2022-09-19T01:06:00+09:00,2.7,���쓌,10,��,28.9,63.5,0,0,0,0
2022-09-19T01:07:00+09:00,2.7,���쓌,10,��,28.9,63.7,0,0,0,0
2022-09-19T01:08:00+09:00,3,��,10,��,28.8,64.3,0,0,0,0
2022-09-19T01:09:00+09:00,3.3,��,10.3,��,28.8,64.9,0,0,0,0
2022-09-19T01:10:00+09:00,3.6,��,10.3,��,28.7,65.4,0,0,0,0
2022-09-19T01:11:00+09:00,3.7,��,10.3,��,28.6,66.1,0,0,0,0
2022-09-19T01:12:00+09:00,3.7,��,10.3,��,28.5,66.6,0,0,0,0
2022-09-19T01:13:00+09:00,4,��,10.3,��,28.4,67.1,0,0,0,0
2022-09-19T01:14:00+09:00,4.1,��,10.3,��,28.3,68.1,0,0,0,0
2022-09-19T01:15:00+09:00,4,��,10.3,��,28.2,69.4,0,0,0,0
2022-09-19T01:16:00+09:00,4,��,10.3,��,28.1,71,0,0,0,0
2022-09-19T01:17:00+09:00,4.1,��,10.3,��,28.2,70.8,0,0,0,0
2022-09-19T01:18:00+09:00,3.8,��,10.3,��,28.2,70,0,0,0,0
2022-09-19T01:19:00+09:00,3.5,��,9.7,��,28.2,70.1,0,0,0,0
2022-09-19T01:20:00+09:00,3.2,��,6.8,��,28,71.4,0,0,0,0
2022-09-19T01:21:00+09:00,3.1,��,6.8,��,27.8,72.5,0,0,0,0
2022-09-19T01:22:00+09:00,3.3,��,6.8,��,27.9,72.7,0,0,0,0
2022-09-19T01:23:00+09:00,3.3,��,6.8,��,28,72.2,0,0,0,0
2022-09-19T01:24:00+09:00,3.3,��,6.8,��,28.1,71.5,0,0,0,0
2022-09-19T01:25:00+09:00,3.2,��,6.8,��,28.1,70.9,0,0,0,0
2022-09-19T01:26:00+09:00,3.1,��,6.8,��,28.1,71.3,0,0,0,0
2022-09-19T01:27:00+09:00,2.8,��,6.8,��,28,71.6,0,0,0,0
2022-09-19T01:28:00+09:00,2.7,��,6.8,��,28,72,0,0,0,0
2022-09-19T01:29:00+09:00,2.7,��,6.8,��,28.1,72.3,0,0,0,0
2022-09-19T01:30:00+09:00,2.8,��,6.8,��,28.2,70.8,0,0,0,0
2022-09-19T01:31:00+09:00,3,��,6.8,��,28.2,70.6,0,0,0,0
2022-09-19T01:32:00+09:00,2.9,��,6.8,��,28.2,70.7,0,0,0,0
2022-09-19T01:33:00+09:00,2.8,��,11.2,��,28.2,71.1,0,0,0,0
2022-09-19T01:34:00+09:00,3.1,��,11.2,��,28.4,70.1,0,0,0,0
2022-09-19T01:35:00+09:00,3,��,11.2,��,28.5,69.3,0,0,0,0
2022-09-19T01:36:00+09:00,3.2,��,11.2,��,28.5,69,0,0,0,0
2022-09-19T01:37:00+09:00,3.5,��,11.2,��,28.5,69.2,0,0,0,0
2022-09-19T01:38:00+09:00,3.6,��,11.2,��,28.6,68.5,0,0,0,0
2022-09-19T01:39:00+09:00,3.5,��,11.2,��,28.6,68.4,0,0,0,0
2022-09-19T01:40:00+09:00,3.2,��,11.2,��,28.4,68.5,0,0,0,0
2022-09-19T01:41:00+09:00,2.9,��,11.2,��,28.2,69.1,0,0,0,0
2022-09-19T01:42:00+09:00,2.8,���쓌,11.2,��,28.1,70.2,0,0,0,0
2022-09-19T01:43:00+09:00,2.5,���쓌,9,��,28.2,70.3,0,0,0,0
2022-09-19T01:44:00+09:00,2.1,��,7.8,���k��,28.3,70.2,0,0,0,0
2022-09-19T01:45:00+09:00,2.1,���쓌,7.8,���k��,28.6,69.5,0,0,0,0
2022-09-19T01:46:00+09:00,1.7,���쓌,7.8,���k��,28.5,68.9,0,0,0,0
2022-09-19T01:47:00+09:00,1.4,���쓌,5,�k��,28.4,68.8,0,0,0,0
2022-09-19T01:48:00+09:00,1.2,���쓌,5,�k��,28.5,69,0,0,0,0
2022-09-19T01:49:00+09:00,1.3,���쓌,5,�k��,28.6,68.5,0,0,0,0
2022-09-19T01:50:00+09:00,1.3,���쓌,5,�k��,28.5,68.8,0,0,0,0
2022-09-19T01:51:00+09:00,1.3,���쓌,5,�k��,28.4,69.2,0,0,0,0
2022-09-19T01:52:00+09:00,1.2,���쓌,5,�k��,28.3,69.4,0,0,0,0
2022-09-19T01:53:00+09:00,1.2,���쓌,5,�k��,28.2,69.6,0,0,0,0
2022-09-19T01:54:00+09:00,1,�쓌,4.4,�k�k��,28.2,69.7,0,0,0,0
2022-09-19T01:55:00+09:00,0.8,�쓌,3.9,��,28.1,70.1,0,0,0,0
2022-09-19T01:56:00+09:00,0.8,�쓌,3.9,��,28.1,70.8,0,0,0,0
2022-09-19T01:57:00+09:00,0.8,��,3.9,��,28.2,70.5,0,0,0,0
2022-09-19T01:58:00+09:00,0.8,��쐼,3.9,��,28.2,70.4,0,0,0,0
2022-09-19T01:59:00+09:00,0.6,�쐼,1.6,���쓌,28.3,70.2,0,0,0,0
2022-09-19T02:00:00+09:00,0.6,���쐼,1.2,�쓌,28.3,70.2,0,0,0,0
2022-09-19T02:01:00+09:00,0.6,���쐼,1.4,�쓌,28.3,70.3,0,0,0,0
2022-09-19T02:02:00+09:00,0.6,���쐼,1.4,�쓌,28.4,70.2,0,0,0,0
2022-09-19T02:03:00+09:00,0.8,��,5.2,��,28.4,69.6,0,0,0,0
2022-09-19T02:04:00+09:00,1.1,�k�k��,5.9,���k��,28.5,69.6,0,0,0,0
2022-09-19T02:05:00+09:00,1.3,�k�k��,5.9,���k��,28.6,69,0,0,0,0
2022-09-19T02:06:00+09:00,1.5,���k��,5.9,���k��,28.6,69.1,0,0,0,0
2022-09-19T02:07:00+09:00,1.9,���k��,7.8,��,28.6,69,0,0,0,0
2022-09-19T02:08:00+09:00,2.3,���k��,7.8,��,28.7,68.7,0,0,0,0
2022-09-19T02:09:00+09:00,2.5,��,7.8,��,28.6,69.1,0,0,0,0
2022-09-19T02:10:00+09:00,2.8,��,7.8,��,28.5,70.9,0,0,0,0
2022-09-19T02:11:00+09:00,3.2,��,7.8,��,28.3,71.9,0,0,0,0
2022-09-19T02:12:00+09:00,3.4,���k��,7.8,��,28.2,72.3,0,0,0,0
2022-09-19T02:13:00+09:00,3.4,��,7.8,��,28.1,73.4,0,0,0,0
2022-09-19T02:14:00+09:00,3.2,��,7.8,��,27.9,74,0,0,0,0
2022-09-19T02:15:00+09:00,3.3,��,7.8,��,28,74.4,0,0,0,0
2022-09-19T02:16:00+09:00,3.2,��,7.8,��,28,75.7,0,0,0,0
2022-09-19T02:17:00+09:00,3,��,6.9,��,27.9,76,0,0,0,0
2022-09-19T02:18:00+09:00,2.8,��,6.8,��,27.9,75.6,0,0,0,0
2022-09-19T02:19:00+09:00,2.6,��,6.8,��,27.9,74.9,0,0,0,0
2022-09-19T02:20:00+09:00,2.5,��,6.8,��,28,74.7,0,0,0,0
2022-09-19T02:21:00+09:00,2.2,���쓌,5.3,��,27.9,75.2,0,0,0,0
2022-09-19T02:22:00+09:00,2,���쓌,5.3,��,27.8,76.1,0,0,0,0
2022-09-19T02:23:00+09:00,1.9,���쓌,5.3,��,27.7,75.8,0,0,0,0
2022-09-19T02:24:00+09:00,1.9,��,5.3,��,27.7,75.5,0,0,0,0
2022-09-19T02:25:00+09:00,1.7,��,5.3,��,27.7,76.1,0,0,0,0
2022-09-19T02:26:00+09:00,1.6,���쓌,5.3,��,27.9,75.5,0,0,0,0
2022-09-19T02:27:00+09:00,1.5,���쓌,3.7,��,28,75.1,0,0,0,0
2022-09-19T02:28:00+09:00,1.5,���쓌,3.4,���k��,28.1,74.7,0,0,0,0
2022-09-19T02:29:00+09:00,1.6,���쓌,3.5,�쓌,28.1,75.4,0,0,0,0
2022-09-19T02:30:00+09:00,1.5,���쓌,3.5,�쓌,28,74.3,0,0,0,0
2022-09-19T02:31:00+09:00,1.6,���쓌,4.4,���쓌,28.1,73.8,0,0,0,0
2022-09-19T02:32:00+09:00,1.7,���쓌,4.4,���쓌,28,74.1,0,0,0,0
2022-09-19T02:33:00+09:00,1.8,���쓌,4.4,���쓌,27.9,74.8,0,0,0,0
2022-09-19T02:34:00+09:00,1.8,��,4.4,���쓌,27.7,75.6,0,0,0,0
2022-09-19T02:35:00+09:00,1.9,��,4.4,���쓌,27.6,76.5,0,0,0,0
2022-09-19T02:36:00+09:00,1.9,��,4.4,���쓌,27.6,77.2,0,0,0,0
2022-09-19T02:37:00+09:00,1.8,��,4.4,���쓌,27.6,76.9,0,0,0,0
2022-09-19T02:38:00+09:00,1.7,��,4.4,���쓌,27.7,76.4,0,0,0,0
2022-09-19T02:39:00+09:00,1.7,��,4.4,���쓌,27.6,77.2,0,0,0,0
2022-09-19T02:40:00+09:00,1.8,���k��,4.4,���쓌,27.6,78.4,0,0,0,0
2022-09-19T02:41:00+09:00,1.7,���k��,3.4,���k��,27.6,77.3,0,0,0,0
2022-09-19T02:42:00+09:00,1.7,���k��,3.4,���k��,27.6,77.1,0,0,0,0
2022-09-19T02:43:00+09:00,1.7,���k��,3.4,���k��,27.7,78,0,0,0,0
2022-09-19T02:44:00+09:00,1.8,��,3.3,��,27.6,77.3,0,0,0,0
2022-09-19T02:45:00+09:00,1.7,��,3.3,��,27.6,77.6,0,0,0,0
2022-09-19T02:46:00+09:00,1.7,��,3.3,��,27.6,77.8,0,0,0,0
2022-09-19T02:47:00+09:00,1.6,���쓌,3.3,��,27.7,76.7,0,0,0,0
2022-09-19T02:48:00+09:00,1.5,���쓌,3.3,��,27.7,77.5,0,0,0,0
2022-09-19T02:49:00+09:00,,,,,,,,,,
2022-09-19T02:50:00+09:00,1.4,�쓌,3.3,��,28,75.4,0,0,0,0
2022-09-19T02:51:00+09:00,1.5,���쓌,3.8,�k��,27.8,76.1,0,0,0,0
2022-09-19T02:52:00+09:00,1.6,���쓌,6.2,��,27.7,76.7,0,0,0,0
2022-09-19T02:53:00+09:00,1.7,���쓌,6.2,��,27.8,77,0,0,0,0
2022-09-19T02:54:00+09:00,1.6,���쓌,6.2,��,27.8,76.9,0,0,0,0
2022-09-19T02:55:00+09:00,1.5,���쓌,6.2,��,27.9,76.5,0,0,0,0
2022-09-19T02:56:00+09:00,1.7,��,6.2,��,27.9,75.8,0,0,0,0
2022-09-19T02:57:00+09:00,1.7,��,6.2,��,27.9,76.2,0,0,0,0
2022-09-19T02:58:00+09:00,1.8,���쓌,6.2,��,27.8,75.8,0,0,0,0
2022-09-19T02:59:00+09:00,1.8,��,6.2,��,27.7,76.4,0,0,0,0
2022-09-19T03:00:00+09:00,1.9,��,6.2,��,27.7,77.6,0,0,0,0
2022-09-19T03:01:00+09:00,1.7,��,6.2,��,27.9,77.2,0,0,0,0
2022-09-19T03:02:00+09:00,1.5,��,5.9,��,27.9,76.2,0,0,0,0
2022-09-19T03:03:00+09:00,1.5,��,4.7,���k��,28,76.2,0,0,0,0
2022-09-19T03:04:00+09:00,1.5,��,4.7,���k��,28,76.1,0,0,0,0
2022-09-19T03:05:00+09:00,1.7,��,4.8,���쓌,28.1,75.4,0,0,0,0
2022-09-19T03:06:00+09:00,1.7,��,4.8,���쓌,28,75.7,0,0,0,0
2022-09-19T03:07:00+09:00,1.8,��,4.8,���쓌,28,76.1,0,0,0,0
2022-09-19T03:08:00+09:00,1.9,��,4.8,���쓌,27.9,76.2,0,0,0,0
2022-09-19T03:09:00+09:00,2,��,4.8,���쓌,27.8,76.9,0,0,0,0
2022-09-19T03:10:00+09:00,2,��,4.8,���쓌,27.6,77.5,0,0,0,0
2022-09-19T03:11:00+09:00,2.1,��,4.8,���쓌,27.6,78,0,0,0,0
2022-09-19T03:12:00+09:00,2.1,���쓌,4.8,���쓌,27.6,78.8,0,0,0,0
2022-09-19T03:13:00+09:00,2.1,���쓌,4.8,���쓌,27.5,79.6,0,0,0,0
2022-09-19T03:14:00+09:00,2.1,���쓌,4.8,���쓌,27.5,80.3,0,0,0,0
2022-09-19T03:15:00+09:00,2.1,���쓌,4.1,���k��,27.4,80.9,0,0,0,0
2022-09-19T03:16:00+09:00,2.3,��,4.9,��,27.4,81.3,0,0,0,0
2022-09-19T03:17:00+09:00,2.4,��,4.9,��,27.4,81.5,0,0,0,0
2022-09-19T03:18:00+09:00,2.3,��,4.9,��,27.3,81.8,0,0,0,0
2022-09-19T03:19:00+09:00,2.3,��,4.9,��,27.2,82.5,0,0,0,0
2022-09-19T03:20:00+09:00,2.2,��,4.9,��,27.2,83.1,0,0,0,0
2022-09-19T03:21:00+09:00,2.2,��,4.9,��,27.1,83.5,0,0,0,0
2022-09-19T03:22:00+09:00,2.2,��,4.9,��,27,83.7,0,0,0,0
2022-09-19T03:23:00+09:00,2,���쓌,4.9,��,27,84.3,0,0,0,0
2022-09-19T03:24:00+09:00,1.8,��,4.9,��,27,85.2,0,0,0,0
2022-09-19T03:25:00+09:00,1.6,��,4.9,��,27.1,85.4,0,0,0,0
2022-09-19T03:26:00+09:00,1.2,��,4.2,���k��,27.2,85.2,0,0,0,0
2022-09-19T03:27:00+09:00,1,���쓌,2.6,��,27.2,84.1,0,0,0,0
2022-09-19T03:28:00+09:00,0.9,��,2.3,���쓌,27.2,84.1,0,0,0,0
2022-09-19T03:29:00+09:00,0.8,��,2.3,���쓌,27.1,84.6,0,0,0,0
2022-09-19T03:30:00+09:00,0.7,��,2.3,���쓌,27.1,85.1,0,0,0,0
2022-09-19T03:31:00+09:00,0.6,��,2,�쓌,27.1,85.8,0,0,0,0
2022-09-19T03:32:00+09:00,0.6,���k��,1.4,���k��,27.2,84.5,0,0,0,0
2022-09-19T03:33:00+09:00,0.6,���k��,1.4,���k��,27.2,84.1,0,0,0,0
2022-09-19T03:34:00+09:00,0.6,���k��,1.4,���k��,27.1,84.1,0,0,0,0
2022-09-19T03:35:00+09:00,0.7,���k��,2.5,�k�k��,27,85.2,0,0,0,0
2022-09-19T03:36:00+09:00,0.9,��,3.5,��,27.2,85.8,0,0,0,0
2022-09-19T03:37:00+09:00,0.9,���k��,3.5,��,27.4,84.6,0,0,0,0
2022-09-19T03:38:00+09:00,1,���k��,3.5,��,27.5,82.9,0,0,0,0
2022-09-19T03:39:00+09:00,1,���k��,3.5,��,27.3,83.1,0,0,0,0
2022-09-19T03:40:00+09:00,1.1,���k��,3.5,��,27.2,83.8,0,0,0,0
2022-09-19T03:41:00+09:00,1.1,���k��,3.5,��,27.1,84.4,0,0,0,0
2022-09-19T03:42:00+09:00,1.1,���k��,3.5,��,27.1,84.6,0,0,0,0
2022-09-19T03:43:00+09:00,1.2,���k��,3.5,��,27.2,84.9,0,0,0,0
2022-09-19T03:44:00+09:00,1.2,���k��,3.5,��,27.2,84.5,0,0,0,0
2022-09-19T03:45:00+09:00,1.1,���k��,3.5,��,27.3,84.3,0,0,0,0
2022-09-19T03:46:00+09:00,1,���k��,2.1,���k��,27.2,83.9,0,0,0,0
2022-09-19T03:47:00+09:00,1,���k��,2.1,���k��,27,84.5,0,0,0,0
2022-09-19T03:48:00+09:00,1,���k��,2.1,���k��,27,85.2,0,0,0,0
2022-09-19T03:49:00+09:00,1,���k��,2.1,���k��,26.8,86.1,0,0,0,0
2022-09-19T03:50:00+09:00,1,���k��,2.1,���k��,26.8,86.4,0,0,0,0
2022-09-19T03:51:00+09:00,1,���k��,2.1,���k��,26.8,86.8,0,0,0,0
2022-09-19T03:52:00+09:00,0.9,���k��,2.1,���k��,26.8,86.8,0,0,0,0
2022-09-19T03:53:00+09:00,1,���k��,4.4,��,27,86.8,0,0,0,0
2022-09-19T03:54:00+09:00,1,���k��,4.4,��,27.1,85.7,0,0,0,0
2022-09-19T03:55:00+09:00,1.1,���k��,4.4,��,27,85.1,0,0,0,0
2022-09-19T03:56:00+09:00,1.2,���k��,4.4,��,27,85.5,0,0,0,0
2022-09-19T03:57:00+09:00,1.3,���k��,4.4,��,27.2,85.6,0,0,0,0
2022-09-19T03:58:00+09:00,1.3,���k��,4.4,��,27.3,84.1,0,0,0,0
2022-09-19T03:59:00+09:00,1.5,���k��,4.4,��,27.3,83.2,0,0,0,0
2022-09-19T04:00:00+09:00,1.6,���k��,4.4,��,27.2,82.7,0,0,0,0
2022-09-19T04:01:00+09:00,1.7,���k��,4.4,��,27.1,83.3,0,0,0,0
2022-09-19T04:02:00+09:00,1.7,���k��,4.4,��,27.1,83.4,0,0,0,0
2022-09-19T04:03:00+09:00,1.5,���k��,3.9,��,27,84.4,0,0,0,0
2022-09-19T04:04:00+09:00,1.4,���k��,3.9,��,27,85.4,0,0,0,0
2022-09-19T04:05:00+09:00,1.3,���k��,3.9,��,26.9,85.9,0,0,0,0
2022-09-19T04:06:00+09:00,1.1,���k��,3.9,��,26.8,85.5,0,0,0,0
2022-09-19T04:07:00+09:00,1,���k��,3.9,��,26.8,85.6,0,0,0,0
2022-09-19T04:08:00+09:00,1,���k��,3.9,��,26.7,85.5,0,0,0,0
2022-09-19T04:09:00+09:00,0.8,��,3.9,��,26.7,86.2,0,0,0,0
2022-09-19T04:10:00+09:00,0.7,���k��,1.6,�쓌,26.7,87,0,0,0,0
2022-09-19T04:11:00+09:00,0.6,�k��,1.3,�k��,26.8,87.5,0,0,0,0
2022-09-19T04:12:00+09:00,0.7,�k��,1.4,���k��,27.1,86.2,0,0,0,0
2022-09-19T04:13:00+09:00,0.6,���k��,2,�k,27.5,84,0,0,0,0
2022-09-19T04:14:00+09:00,0.7,���k��,2.5,���k��,27.5,82.2,0,0,0,0
2022-09-19T04:15:00+09:00,0.8,�k��,2.5,���k��,27.5,81.6,0,0,0,0
2022-09-19T04:16:00+09:00,0.9,�k�k��,2.5,���k��,27.4,81.4,0,0,0,0
2022-09-19T04:17:00+09:00,0.9,�k�k��,2.5,���k��,27.4,81.3,0,0,0,0
2022-09-19T04:18:00+09:00,0.9,�k�k��,2.5,���k��,27.3,81.2,0,0,0,0
2022-09-19T04:19:00+09:00,0.9,�k�k��,2.5,���k��,27.5,80.9,0,0,0,0
2022-09-19T04:20:00+09:00,0.8,�k��,2.5,���k��,27.4,80.5,0,0,0,0
2022-09-19T04:21:00+09:00,0.9,���k��,2.5,���k��,27.3,80.6,0,0,0,0
2022-09-19T04:22:00+09:00,0.8,���k��,2.5,���k��,27.4,81.2,0,0,0,0
2022-09-19T04:23:00+09:00,0.8,��,2.5,���k��,27.5,80.8,0,0,0,0
2022-09-19T04:24:00+09:00,0.7,��,1.6,���k��,27.3,80,0,0,0,0
2022-09-19T04:25:00+09:00,0.7,��,1.4,��,27.1,80.8,0,0,0,0
2022-09-19T04:26:00+09:00,0.7,��,1.4,��,26.9,82.3,0,0,0,0
2022-09-19T04:27:00+09:00,0.7,��,1.4,��,26.8,83.5,0,0,0,0
2022-09-19T04:28:00+09:00,0.7,��,1.4,��,26.8,84.7,0,0,0,0
2022-09-19T04:29:00+09:00,0.8,��,1.6,��,26.8,84.8,0,0,0,0
2022-09-19T04:30:00+09:00,0.8,��,1.7,��,26.9,85.1,0,0,0,0
2022-09-19T04:31:00+09:00,0.8,���k��,1.7,��,27.2,84.3,0,0,0,0
2022-09-19T04:32:00+09:00,0.8,���k��,1.7,��,27.2,83.4,0,0,0,0
2022-09-19T04:33:00+09:00,0.8,���k��,1.7,��,27.2,83.2,0,0,0,0
2022-09-19T04:34:00+09:00,0.7,���k��,1.7,��,27.1,83.8,0,0,0,0
2022-09-19T04:35:00+09:00,0.7,���k��,1.7,��,26.9,84.8,0,0,0,0
2022-09-19T04:36:00+09:00,0.7,���k��,1.7,��,26.8,85.1,0,0,0,0
2022-09-19T04:37:00+09:00,0.7,�k��,1.7,��,26.7,85.8,0,0,0,0
2022-09-19T04:38:00+09:00,0.7,�k��,1.7,��,26.7,86.2,0,0,0,0
2022-09-19T04:39:00+09:00,0.6,�k�k��,1.7,��,26.7,86.8,0,0,0,0
2022-09-19T04:40:00+09:00,0.6,�k,1.2,�k�k��,26.6,87.3,0,0,0,0
2022-09-19T04:41:00+09:00,0.5,�k,1.2,�k�k��,26.6,87.7,0,0,0,0
2022-09-19T04:42:00+09:00,0.5,�k�k��,1.2,�k�k��,26.7,87.5,0,0,0,0
2022-09-19T04:43:00+09:00,0.5,�k�k��,1.2,�k�k��,26.6,87.2,0,0,0,0
2022-09-19T04:44:00+09:00,0.5,�k,1.2,�k�k��,26.6,88,0,0,0,0
2022-09-19T04:45:00+09:00,0.5,�k,1.2,�k�k��,26.9,87.5,0,0,0,0
2022-09-19T04:46:00+09:00,0.5,�k,1.7,���k��,26.9,86,0,0,0,0
2022-09-19T04:47:00+09:00,0.6,�k,2,���k��,26.9,86.3,0,0,0,0
2022-09-19T04:48:00+09:00,0.7,�k�k��,2.8,�k�k��,27,86.5,0,0,0,0
2022-09-19T04:49:00+09:00,0.8,�k�k��,2.8,�k�k��,27.1,85.7,0,0,0,0
2022-09-19T04:50:00+09:00,0.9,�k��,2.8,�k�k��,27.1,84.9,0,0,0,0
2022-09-19T04:51:00+09:00,1,���k��,2.8,�k�k��,26.7,84.5,0,0,0,0
2022-09-19T04:52:00+09:00,1.2,���k��,2.8,�k�k��,26.6,85.9,0,0,0,0
2022-09-19T04:53:00+09:00,1.2,���k��,2.8,�k�k��,26.4,87.2,0,0,0,0
2022-09-19T04:54:00+09:00,1.3,���k��,2.8,�k�k��,26.4,88.4,0,0,0,0
2022-09-19T04:55:00+09:00,1.3,��,2.8,�k�k��,26.3,89.2,0,0,0,0
2022-09-19T04:56:00+09:00,1.2,��,2.8,�k�k��,26.3,89.2,0,0,0,0
2022-09-19T04:57:00+09:00,1.1,��,2.8,�k�k��,26.3,90.1,0,0,0,0
2022-09-19T04:58:00+09:00,1,��,2.6,��,26.2,90.7,0,0,0,0
2022-09-19T04:59:00+09:00,0.9,���쓌,2.3,��,26.3,90.8,0,0,0,0
2022-09-19T05:00:00+09:00,0.7,�쓌,2.2,�쓌,26.3,90.2,0,0,0,0
2022-09-19T05:01:00+09:00,0.7,��,2.2,�쓌,26.2,90.3,0,0,0,0
2022-09-19T05:02:00+09:00,0.6,��쐼,1.7,�쓌,26.3,90.7,0,0,0,0
2022-09-19T05:03:00+09:00,0.6,�쐼,1.6,��,26.3,90.5,0,0,0,0
2022-09-19T05:04:00+09:00,0.6,�쐼,1.2,�쐼,26.3,90.1,0,0,0,0
2022-09-19T05:05:00+09:00,0.6,���쐼,1.2,�쐼,26.4,90.4,0,0,0,0
2022-09-19T05:06:00+09:00,0.7,���쐼,1.4,�k��,26.3,91,0,0,0,0
2022-09-19T05:07:00+09:00,0.8,���쐼,1.4,�k��,26.4,90.9,0,0,0,0
2022-09-19T05:08:00+09:00,0.8,��,1.4,�k��,26.7,90.9,0,0,0,0
2022-09-19T05:09:00+09:00,0.8,��,1.4,�k��,27.1,88.7,0,0,0,0
2022-09-19T05:10:00+09:00,0.9,���k��,1.4,�k��,27.2,85.6,0,0,0,0
2022-09-19T05:11:00+09:00,0.9,���k��,1.8,��,27.4,84.2,0,0,0,0
2022-09-19T05:12:00+09:00,0.9,�k��,2.1,�k��,27.7,81.8,0,0,0,0
2022-09-19T05:13:00+09:00,0.9,�k��,2.1,�k��,27.4,80.6,0,0,0,0
2022-09-19T05:14:00+09:00,1,�k�k��,2.1,�k��,27,82.1,0,0,0,0
2022-09-19T05:15:00+09:00,0.9,�k,2.1,�k��,26.7,83.9,0,0,0,0
2022-09-19T05:16:00+09:00,0.8,�k,2.1,�k��,26.6,85.7,0,0,0,0
2022-09-19T05:17:00+09:00,0.7,�k,2.1,�k��,26.6,86.2,0,0,0,0
2022-09-19T05:18:00+09:00,0.7,�k,2.1,�k��,26.6,86.9,0,0,0,0
2022-09-19T05:19:00+09:00,0.6,�k,2.1,�k��,26.6,87.6,0,0,0,0
2022-09-19T05:20:00+09:00,0.6,�k�k��,2.1,�k��,26.5,88.3,0,0,0,0
2022-09-19T05:21:00+09:00,0.7,�k��,2.7,���k��,26.5,88.8,0,0,0,0
2022-09-19T05:22:00+09:00,0.7,�k��,2.7,���k��,26.3,89.3,0,0,0,0
2022-09-19T05:23:00+09:00,0.7,�k�k��,2.7,���k��,26.2,89.8,0,0,0,0
2022-09-19T05:24:00+09:00,0.7,�k�k��,3,��,26.2,90.7,0,0,0,0
2022-09-19T05:25:00+09:00,0.9,�k��,3,��,26.7,91.4,0,0,0,0
2022-09-19T05:26:00+09:00,1.1,���k��,3,��,26.9,89.4,0,0,0,0
2022-09-19T05:27:00+09:00,1.3,�k��,3,��,26.9,87.7,0,0,0,0
2022-09-19T05:28:00+09:00,1.4,�k��,3,��,27,87,0,0,0,0
2022-09-19T05:29:00+09:00,1.5,���k��,3,��,27.1,86.1,0,0,0,0
2022-09-19T05:30:00+09:00,1.6,���k��,3,��,27.1,85,0,0,0,0
2022-09-19T05:31:00+09:00,1.6,���k��,3,��,27,84.6,0,0,0,0
2022-09-19T05:32:00+09:00,1.7,���k��,3.1,���k��,27.1,85.1,0,0,0,0
2022-09-19T05:33:00+09:00,1.7,���k��,3.1,���k��,27.3,84.8,0,0,0,0
2022-09-19T05:34:00+09:00,1.7,���k��,3.2,���k��,27.5,83.3,0,0,0,0
2022-09-19T05:35:00+09:00,1.7,���k��,3.2,���k��,27.4,82.2,0,0,0,0
2022-09-19T05:36:00+09:00,1.8,���k��,3.2,���k��,27.3,82.1,0,0,0,0
2022-09-19T05:37:00+09:00,1.7,���k��,3.2,���k��,27.2,83,0,0,0,0
2022-09-19T05:38:00+09:00,1.7,���k��,3.2,���k��,27.1,83.8,0,0,0,0
2022-09-19T05:39:00+09:00,1.7,���k��,3.2,���k��,27.1,84.7,0,0,0,0
2022-09-19T05:40:00+09:00,1.7,���k��,3.2,���k��,27,85,0,0,0,0
2022-09-19T05:41:00+09:00,1.7,���k��,3.3,��,27.2,85,0,0,0,0
2022-09-19T05:42:00+09:00,1.9,���k��,4.2,���쓌,27.3,83.9,0,0,0,0
2022-09-19T05:43:00+09:00,1.9,���k��,4.2,���쓌,27.5,83.1,0,0,0,0
2022-09-19T05:44:00+09:00,2.1,���k��,5.3,���k��,27.6,81.9,0,0,0,0
2022-09-19T05:45:00+09:00,2,���k��,5.3,���k��,27.6,81.1,0,0,0,0
2022-09-19T05:46:00+09:00,2.1,���k��,5.3,���k��,27.7,80.8,0,0,0,0
2022-09-19T05:47:00+09:00,2.2,���k��,5.3,���k��,28,79.5,0,0,0,0
2022-09-19T05:48:00+09:00,2.2,���k��,5.3,���k��,28,78.6,0,0,0,0
2022-09-19T05:49:00+09:00,2.2,���k��,5.3,���k��,27.9,78.5,0,0,0,0
2022-09-19T05:50:00+09:00,2.1,��,5.3,���k��,27.8,78.7,0,0,0,0
2022-09-19T05:51:00+09:00,1.9,��,5.3,���k��,27.6,79.5,0,0,0,0
2022-09-19T05:52:00+09:00,1.7,��,5.3,���k��,27.5,80.3,0,0,0,0
2022-09-19T05:53:00+09:00,1.6,��,5.3,���k��,27.5,81.1,0,0,0,0
2022-09-19T05:54:00+09:00,1.3,��,4.9,���k��,27.6,81.7,0,0,0,0
2022-09-19T05:55:00+09:00,1.2,��,4.9,���k��,27.4,81.9,0,0,0,0
2022-09-19T05:56:00+09:00,1.1,��,4.9,���k��,27.4,82.2,0,0,0,0
2022-09-19T05:57:00+09:00,0.9,��,2.2,���쓌,27.3,82.6,0,0,0,0
2022-09-19T05:58:00+09:00,0.8,���k��,2,��,27.3,83.3,0,0,0,0
2022-09-19T05:59:00+09:00,0.9,���k��,2,��,27.3,83.8,0,0,0,0
2022-09-19T06:00:00+09:00,0.9,���k��,2,��,27.3,84.2,0,0,0,0
2022-09-19T06:01:00+09:00,0.9,���k��,2,��,27.4,83.6,0,0,0,0
2022-09-19T06:02:00+09:00,1,�k��,2.4,���k��,27.4,83.4,0,0,0,0
2022-09-19T06:03:00+09:00,1,���k��,3,��,27.3,83.4,0,0,0,0
2022-09-19T06:04:00+09:00,1.3,���k��,4.3,�쓌,27.4,83.4,0,0,0,0
2022-09-19T06:05:00+09:00,1.3,���k��,4.3,�쓌,27.4,83,0,0,0,0
2022-09-19T06:06:00+09:00,1.4,���k��,4.3,�쓌,27.4,83,0,0,0,0
2022-09-19T06:07:00+09:00,1.5,��,4.3,�쓌,27.3,83.2,0,0,0,0
2022-09-19T06:08:00+09:00,1.5,��,4.3,�쓌,27.3,83.7,0,0,0,0
2022-09-19T06:09:00+09:00,1.5,��,4.3,�쓌,27.3,84.3,0,0,0,0
2022-09-19T06:10:00+09:00,1.5,���k��,4.3,�쓌,27.3,84.5,0,0,0,0
2022-09-19T06:11:00+09:00,1.6,���k��,4.3,�쓌,27.2,84.8,0,0,0,0
2022-09-19T06:12:00+09:00,1.5,���k��,4.3,�쓌,27.1,84.9,0,0,0,0
2022-09-19T06:13:00+09:00,1.5,���k��,4.3,�쓌,27,85.5,0,0,0,0
2022-09-19T06:14:00+09:00,1.4,���k��,3.9,��,27,85.9,0,0,0,0
2022-09-19T06:15:00+09:00,1.4,���k��,3.9,��,27,86.1,0,0,0,0
2022-09-19T06:16:00+09:00,1.4,���k��,3.9,��,27,86.6,0,0,0,0
2022-09-19T06:17:00+09:00,1.5,���k��,4,���k��,27.2,86.6,0,0,0,0
2022-09-19T06:18:00+09:00,1.5,���k��,4,���k��,27.4,84.3,0,0,0,0
2022-09-19T06:19:00+09:00,1.6,���k��,4,���k��,27.1,83.4,0,0,0,0
2022-09-19T06:20:00+09:00,1.6,��,4,���k��,26.9,84.6,0,0,0,0
2022-09-19T06:21:00+09:00,1.5,��,4,���k��,26.8,86.5,0,0,0,0
2022-09-19T06:22:00+09:00,1.5,��,4,���k��,26.8,87.7,0,0,0,0
2022-09-19T06:23:00+09:00,1.3,��,4,���k��,26.8,88.5,0,0,0,0
2022-09-19T06:24:00+09:00,1.2,��,4,���k��,26.8,89,0,0,0,0
2022-09-19T06:25:00+09:00,1.2,��,4,���k��,26.8,88.4,0,0,0,0
2022-09-19T06:26:00+09:00,1.2,��,4,���k��,27,87.7,0,0,0,0
2022-09-19T06:27:00+09:00,1.1,��,2.4,���k��,27,87.1,0,0,0,0
2022-09-19T06:28:00+09:00,1.1,��,2.5,��,27,86.7,0,0,0,0
2022-09-19T06:29:00+09:00,1.1,��,2.6,���쓌,27,87.2,0,0,0,0
2022-09-19T06:30:00+09:00,1.1,��,2.6,���쓌,27.2,86.9,0,0,0,0
2022-09-19T06:31:00+09:00,1.1,���k��,2.6,���쓌,27.3,85.7,0,0,0,0
2022-09-19T06:32:00+09:00,1.2,���k��,2.6,���쓌,27.3,85.2,0,0,0,0
2022-09-19T06:33:00+09:00,1.3,��,2.6,���쓌,27.3,85.3,0,0,0,0
2022-09-19T06:34:00+09:00,1.4,��,2.6,���쓌,27.3,85.7,0,0,0,0